Location: Unspecified
(0.0000°N, 0.0000°E)
Time: 15:47:17
(UTC+00:00)

deb Delta 126 - Pass Details

Date: 22 February 2026
Orbit: 1502 x 2092 km, 101.9° (Epoch: 4 March)

Event Time Altitude Azimuth Distance (km) Brightness Sun altitude
Rises 04:57:14 0° 350° (N) 4,729 ? -18.8°
Reaches altitude 10° 05:00:35 10° 338° (NNW) 3,806 ? -17.9°
Maximum altitude 05:07:39 26° 285° (WNW) 2,863 ? -16.2°
Drops below altitude 10° 05:15:19 10° 233° (SW) 4,144 ? -14.3°
Sets 05:19:13 0° 221° (SW) 5,232 ? -13.4°
